Fresh Breeze — WDE8045 — position and weather

sailwx.info

Track history (hours):
 
Tides and Currents Weather Stations Pressure Air Temp Water Temp Dewpoint Dewpoint Depression Visibility Wind Speed Wind Dir Waves Ship Positions

Fresh Breeze

Owner: Cain Mr., Joe, Fort Lauderdale, FL. More information available from US FCC via Universal Licensing System and Coast Guard Vessel Documentation Center.

Last reported at 2013-Oct-23 15:18 UTC. Time now 2014-Dec-21 01:09 UTC.
Position N 26°33' W 079°58'.
Warning: this ship's position is years out of date!

Date/timePositionNaut miles runAvg speedWind from/ knotsBaromVisibWave heightAir tempDewpointWater temp
2013-Oct-23 15:18N 26°33' W 079°58'6 8.7
2013-Oct-23 14:33N 26°27' W 079°58'9 9.6
2013-Oct-23 13:33N 26°17' W 079°59'9 9.4
2013-Oct-23 12:33N 26°09' W 080°03'4 4.4
2013-Oct-23 11:33N 26°07' W 080°07'1 0.9
2013-Oct-23 10:32N 26°07' W 080°08'  
2013-Oct-18 16:33N 26°07' W 080°08'0 0.0
2013-Oct-18 15:33N 26°07' W 080°08'0 0.0
2013-Oct-18 14:33N 26°07' W 080°08'  
2013-Oct-13 21:06N 26°07' W 080°08'2 4.5
2013-Oct-13 20:33N 26°06' W 080°06'5 5.0
2013-Oct-13 19:33N 26°10' W 080°03'6 5.7
2013-Oct-13 18:32N 26°16' W 080°03'8 7.6
2013-Oct-13 17:32N 26°23' W 080°02'8 7.9
2013-Oct-13 16:28N 26°32' W 080°01'  
Track history (hours):
 
Tides and Currents Weather Stations Pressure Air Temp Water Temp Dewpoint Dewpoint Depression Visibility Wind Speed Wind Dir Waves Ship Positions

Fresh Breeze

Owner: Cain Mr., Joe, Fort Lauderdale, FL. More information available from US FCC via Universal Licensing System and Coast Guard Vessel Documentation Center.

Last reported at 2013-Oct-23 15:18 UTC. Time now 2014-Dec-21 01:09 UTC.
Position N 26°33' W 079°58'.
Warning: this ship's position is years out of date!

Date/timePositionNaut miles runAvg speedWind from/ knotsBaromVisibWave heightAir tempDewpointWater temp
2013-Oct-23 15:18N 26°33' W 079°58'6 8.7
2013-Oct-23 14:33N 26°27' W 079°58'9 9.6
2013-Oct-23 13:33N 26°17' W 079°59'9 9.4
2013-Oct-23 12:33N 26°09' W 080°03'4 4.4
2013-Oct-23 11:33N 26°07' W 080°07'1 0.9
2013-Oct-23 10:32N 26°07' W 080°08'  
2013-Oct-18 16:33N 26°07' W 080°08'0 0.0
2013-Oct-18 15:33N 26°07' W 080°08'0 0.0
2013-Oct-18 14:33N 26°07' W 080°08'  
2013-Oct-13 21:06N 26°07' W 080°08'2 4.5
2013-Oct-13 20:33N 26°06' W 080°06'5 5.0
2013-Oct-13 19:33N 26°10' W 080°03'6 5.7
2013-Oct-13 18:32N 26°16' W 080°03'8 7.6
2013-Oct-13 17:32N 26°23' W 080°02'8 7.9
2013-Oct-13 16:28N 26°32' W 080°01'  

Dump ship's entire track history